Time,TemperatureF,DewpointF,PressureIn,WindDirection,WindDirectionDegrees,WindSpeedMPH,WindSpeedGustMPH,Humidity,HourlyPrecipIn,Conditions,Clouds,dailyrainin,SoftwareType,DateUTC
2013-02-13 00:04:00,22.2,2.0,30.04,West,266,8.1,8.1,41,0.00,CLR,,0.00,WeatherDisplay:10.37,2013-02-13 07:04:00,
2013-02-13 00:09:00,22.4,2.7,30.04,West,269,11.5,11.5,42,0.00,CLR,,0.00,WeatherDisplay:10.37,2013-02-13 07:09:00,
2013-02-13 00:14:00,22.5,2.8,30.04,WSW,247,17.3,17.3,42,0.00,CLR,,0.00,WeatherDisplay:10.37,2013-02-13 07:14:00,
2013-02-13 00:19:00,22.7,3.0,30.04,West,279,16.1,16.1,42,0.00,CLR,,0.00,WeatherDisplay:10.37,2013-02-13 07:19:00,
2013-02-13 00:24:00,22.7,3.0,30.04,WSW,242,16.1,16.1,42,0.00,CLR,,0.00,WeatherDisplay:10.37,2013-02-13 07:24:00,
2013-02-13 00:29:00,22.9,3.7,30.04,WSW,244,25.3,25.3,43,0.00,CLR,,0.00,WeatherDisplay:10.37,2013-02-13 07:29:00,
2013-02-13 00:34:00,22.9,3.7,30.02,WSW,251,27.6,27.6,43,0.00,CLR,,0.00,WeatherDisplay:10.37,2013-02-13 07:34:00,
2013-02-13 00:39:00,23.0,2.8,30.02,SW,217,14.0,14.0,41,0.00,CLR,,0.00,WeatherDisplay:10.37,2013-02-13 07:39:00,
2013-02-13 00:44:00,22.5,2.3,30.02,WSW,252,30.0,30.0,41,0.00,CLR,,0.00,WeatherDisplay:10.37,2013-02-13 07:44:00,
2013-02-13 00:49:00,22.2,2.0,30.01,WSW,247,26.5,26.5,41,0.00,CLR,,0.00,WeatherDisplay:10.37,2013-02-13 07:49:00,
2013-02-13 00:54:00,22.4,2.2,30.01,SW,232,17.3,17.3,41,0.00,CLR,,0.00,WeatherDisplay:10.37,2013-02-13 07:54:00,
2013-02-13 00:59:00,22.7,2.5,30.01,WSW,245,13.8,13.8,41,0.00,CLR,,0.00,WeatherDisplay:10.37,2013-02-13 07:59:00,
2013-02-13 01:04:00,23.0,2.8,30.01,West,276,18.4,18.4,41,0.00,CLR,,0.00,WeatherDisplay:10.37,2013-02-13 08:04:00,
2013-02-13 01:09:00,22.7,3.0,30.01,SW,227,18.0,18.0,42,0.00,CLR,,0.00,WeatherDisplay:10.37,2013-02-13 08:09:00,
2013-02-13 01:14:00,22.5,2.8,30.01,WSW,238,21.9,21.9,42,0.00,CLR,,0.00,WeatherDisplay:10.37,2013-02-13 08:14:00,
2013-02-13 01:19:00,22.7,3.0,30.01,SW,235,13.8,13.8,42,0.00,CLR,,0.00,WeatherDisplay:10.37,2013-02-13 08:19:00,
2013-02-13 01:24:00,22.9,2.7,30.01,SW,217,11.5,11.5,41,0.00,CLR,,0.00,WeatherDisplay:10.37,2013-02-13 08:24:00,
2013-02-13 01:29:00,23.0,2.8,30.01,WSW,244,11.5,11.5,41,0.00,CLR,,0.00,WeatherDisplay:10.37,2013-02-13 08:29:00,
2013-02-13 01:34:00,23.2,3.5,30.00,SW,231,16.1,16.1,42,0.00,CLR,,0.00,WeatherDisplay:10.37,2013-02-13 08:34:00,
2013-02-13 01:39:00,22.9,3.2,30.00,SSW,200,19.6,19.6,42,0.00,CLR,,0.00,WeatherDisplay:10.37,2013-02-13 08:39:00,
2013-02-13 01:44:00,22.9,3.7,30.00,SW,218,11.5,11.5,43,0.00,CLR,,0.00,WeatherDisplay:10.37,2013-02-13 08:44:00,
2013-02-13 01:49:00,23.3,3.6,29.99,WSW,240,16.1,16.1,42,0.00,CLR,,0.00,WeatherDisplay:10.37,2013-02-13 08:49:00,
2013-02-13 01:54:00,23.5,3.7,29.99,SW,223,18.4,18.4,42,0.00,CLR,,0.00,WeatherDisplay:10.37,2013-02-13 08:54:00,
2013-02-13 01:59:00,23.5,3.7,29.99,WSW,245,16.1,16.1,42,0.00,CLR,,0.00,WeatherDisplay:10.37,2013-02-13 08:59:00,
2013-02-13 02:04:00,23.8,4.0,29.98,West,261,19.6,19.6,42,0.00,CLR,,0.00,WeatherDisplay:10.37,2013-02-13 09:04:00,
2013-02-13 02:09:00,24.7,3.8,29.98,SSW,200,27.6,27.6,40,0.00,CLR,,0.00,WeatherDisplay:10.37,2013-02-13 09:09:00,
2013-02-13 02:14:00,25.6,4.0,29.98,WSW,252,26.5,26.5,39,0.00,CLR,,0.00,WeatherDisplay:10.37,2013-02-13 09:14:00,
2013-02-13 02:19:00,26.0,3.8,29.94,WNW,282,21.9,21.9,38,0.00,,,0.00,WeatherDisplay:10.37,2013-02-13 09:19:00,
2013-02-13 02:24:00,25.7,4.1,29.94,WNW,286,26.5,26.5,39,0.00,CLR,,0.00,WeatherDisplay:10.37,2013-02-13 09:24:00,
2013-02-13 02:29:00,25.6,4.0,29.94,WSW,244,20.7,20.7,39,0.00,CLR,,0.00,WeatherDisplay:10.37,2013-02-13 09:29:00,
2013-02-13 02:34:00,25.1,3.6,29.96,West,268,25.3,25.3,39,0.00,CLR,,0.00,WeatherDisplay:10.37,2013-02-13 09:34:00,
2013-02-13 02:39:00,25.4,3.8,29.96,WSW,237,25.3,25.3,39,0.00,CLR,,0.00,WeatherDisplay:10.37,2013-02-13 09:39:00,
2013-02-13 02:44:00,25.3,3.8,29.96,West,259,19.6,19.6,39,0.00,CLR,,0.00,WeatherDisplay:10.37,2013-02-13 09:44:00,
2013-02-13 02:49:00,25.0,3.5,29.96,WSW,237,32.2,32.2,39,0.00,,,0.00,WeatherDisplay:10.37,2013-02-13 09:49:00,
2013-02-13 02:54:00,24.7,3.2,29.96,WNW,282,25.3,25.3,39,0.00,CLR,,0.00,WeatherDisplay:10.37,2013-02-13 09:54:00,
2013-02-13 02:59:00,24.2,3.3,29.96,WSW,247,19.6,19.6,40,0.00,CLR,,0.00,WeatherDisplay:10.37,2013-02-13 09:59:00,
2013-02-13 03:04:00,24.2,3.3,29.96,WSW,248,26.5,26.5,40,0.00,CLR,,0.00,WeatherDisplay:10.37,2013-02-13 10:04:00,
2013-02-13 03:09:00,24.4,3.5,29.96,WSW,238,27.6,27.6,40,0.00,CLR,,0.00,WeatherDisplay:10.37,2013-02-13 10:09:00,
2013-02-13 03:14:00,24.7,3.8,29.96,WSW,254,27.6,27.6,40,0.00,CLR,,0.00,WeatherDisplay:10.37,2013-02-13 10:14:00,
2013-02-13 03:19:00,24.7,3.8,29.96,West,276,28.8,28.8,40,0.00,CLR,,0.00,WeatherDisplay:10.37,2013-02-13 10:19:00,
2013-02-13 03:24:00,24.5,3.6,29.96,WSW,247,24.2,24.2,40,0.00,CLR,,0.00,WeatherDisplay:10.37,2013-02-13 10:24:00,
2013-02-13 03:29:00,24.7,3.8,29.96,West,262,28.8,28.8,40,0.00,CLR,,0.00,WeatherDisplay:10.37,2013-02-13 10:29:00,
2013-02-13 03:34:00,25.0,4.0,29.96,West,273,33.4,33.4,40,0.00,CLR,,0.00,WeatherDisplay:10.37,2013-02-13 10:34:00,
2013-02-13 03:39:00,24.8,3.9,29.96,SW,227,24.2,24.2,40,0.00,CLR,,0.00,WeatherDisplay:10.37,2013-02-13 10:39:00,
2013-02-13 03:44:00,24.8,3.9,29.96,WSW,255,21.9,21.9,40,0.00,CLR,,0.00,WeatherDisplay:10.37,2013-02-13 10:44:00,
2013-02-13 03:49:00,25.0,4.0,29.96,West,259,29.0,29.0,40,0.00,CLR,,0.00,WeatherDisplay:10.37,2013-02-13 10:49:00,
2013-02-13 03:54:00,25.3,3.8,29.96,SW,227,26.5,26.5,39,0.00,CLR,,0.00,WeatherDisplay:10.37,2013-02-13 10:54:00,
2013-02-13 03:59:00,25.1,4.1,29.96,WSW,241,29.9,29.9,40,0.00,CLR,,0.00,WeatherDisplay:10.37,2013-02-13 10:59:00,
2013-02-13 04:04:00,25.1,3.6,29.95,SSW,208,34.5,34.5,39,0.00,CLR,,0.00,WeatherDisplay:10.37,2013-02-13 11:04:00,
2013-02-13 04:09:00,25.4,3.8,29.95,SW,232,21.0,21.0,39,0.00,CLR,,0.00,WeatherDisplay:10.37,2013-02-13 11:09:00,
2013-02-13 04:14:00,25.6,3.5,29.95,WSW,252,26.5,26.5,38,0.00,CLR,,0.00,WeatherDisplay:10.37,2013-02-13 11:14:00,
2013-02-13 04:19:00,25.3,3.8,29.98,SW,218,24.2,24.2,39,0.00,CLR,,0.00,WeatherDisplay:10.37,2013-02-13 11:19:00,
2013-02-13 04:24:00,25.3,3.8,29.98,SW,224,24.2,24.2,39,0.00,CLR,,0.00,WeatherDisplay:10.37,2013-02-13 11:24:00,
2013-02-13 04:29:00,25.4,3.8,29.98,SW,227,28.8,28.8,39,0.00,CLR,,0.00,WeatherDisplay:10.37,2013-02-13 11:29:00,
2013-02-13 04:34:00,25.3,3.8,29.99,WSW,245,29.9,29.9,39,0.00,,,0.00,WeatherDisplay:10.37,2013-02-13 11:34:00,
2013-02-13 04:39:00,25.3,4.3,29.99,SW,234,26.5,26.5,40,0.00,CLR,,0.00,WeatherDisplay:10.37,2013-02-13 11:39:00,
2013-02-13 04:44:00,25.6,4.0,29.99,WSW,252,31.1,31.1,39,0.00,CLR,,0.00,WeatherDisplay:10.37,2013-02-13 11:44:00,
2013-02-13 04:49:00,25.7,3.6,29.98,SW,231,29.9,29.9,38,0.00,CLR,,0.00,WeatherDisplay:10.37,2013-02-13 11:49:00,
2013-02-13 04:54:00,25.6,3.5,29.98,WSW,238,25.0,25.0,38,0.00,,,0.00,WeatherDisplay:10.37,2013-02-13 11:54:00,
2013-02-13 04:59:00,26.1,2.7,29.98,SW,224,35.7,35.7,36,0.00,,,0.00,WeatherDisplay:10.37,2013-02-13 11:59:00,
2013-02-13 05:04:00,25.7,3.0,29.99,SW,234,26.5,26.5,37,0.00,,,0.00,WeatherDisplay:10.37,2013-02-13 12:04:00,
2013-02-13 05:09:00,25.4,3.3,29.99,WSW,245,27.6,27.6,38,0.00,,,0.00,WeatherDisplay:10.37,2013-02-13 12:09:00,
2013-02-13 05:14:00,25.1,3.6,29.99,WSW,248,26.5,26.5,39,0.00,CLR,,0.00,WeatherDisplay:10.37,2013-02-13 12:14:00,
2013-02-13 05:19:00,25.0,2.9,30.01,SW,230,27.6,27.6,38,0.00,,,0.00,WeatherDisplay:10.37,2013-02-13 12:19:00,
2013-02-13 05:24:00,25.1,3.0,30.01,West,259,31.1,31.1,38,0.00,,,0.00,WeatherDisplay:10.37,2013-02-13 12:24:00,
2013-02-13 05:29:00,25.4,2.7,30.01,West,269,27.0,27.0,37,0.00,CLR,,0.00,WeatherDisplay:10.37,2013-02-13 12:29:00,
2013-02-13 05:34:00,25.8,1.9,30.00,WSW,240,34.5,34.5,35,0.00,,,0.00,WeatherDisplay:10.37,2013-02-13 12:34:00,
2013-02-13 05:39:00,26.1,2.1,30.00,SW,228,32.2,32.2,35,0.00,,,0.00,WeatherDisplay:10.37,2013-02-13 12:39:00,
2013-02-13 05:44:00,25.8,1.9,30.00,West,271,29.9,29.9,35,0.00,CLR,,0.00,WeatherDisplay:10.37,2013-02-13 12:44:00,
2013-02-13 05:49:00,26.1,2.1,30.00,SW,228,31.1,31.1,35,0.00,,,0.00,WeatherDisplay:10.37,2013-02-13 12:49:00,
2013-02-13 05:54:00,26.4,2.4,30.00,SW,230,34.5,34.5,35,0.00,CLR,,0.00,WeatherDisplay:10.37,2013-02-13 12:54:00,
2013-02-13 05:59:00,26.1,2.1,30.00,WSW,238,27.0,27.0,35,0.00,CLR,,0.00,WeatherDisplay:10.37,2013-02-13 12:59:00,
2013-02-13 06:04:00,26.3,2.3,30.00,WSW,237,26.5,26.5,35,0.00,,,0.00,WeatherDisplay:10.37,2013-02-13 13:04:00,
2013-02-13 06:09:00,26.0,2.7,30.00,WSW,252,24.2,24.2,36,0.00,,,0.00,WeatherDisplay:10.37,2013-02-13 13:09:00,
2013-02-13 06:14:00,26.0,2.7,30.00,West,264,32.2,32.2,36,0.00,,,0.00,WeatherDisplay:10.37,2013-02-13 13:14:00,
2013-02-13 06:19:00,25.8,2.5,30.02,SW,223,28.0,28.0,36,0.00,CLR,,0.00,WeatherDisplay:10.37,2013-02-13 13:19:00,
2013-02-13 06:24:00,25.7,2.4,30.02,West,269,24.2,24.2,36,0.00,,,0.00,WeatherDisplay:10.37,2013-02-13 13:24:00,
2013-02-13 06:29:00,26.0,2.7,30.02,WSW,245,34.5,34.5,36,0.00,CLR,,0.00,WeatherDisplay:10.37,2013-02-13 13:29:00,
2013-02-13 06:34:00,26.1,2.7,30.03,SW,217,24.2,24.2,36,0.00,CLR,,0.00,WeatherDisplay:10.37,2013-02-13 13:34:00,
2013-02-13 06:39:00,26.1,2.7,30.03,SW,228,34.5,34.5,36,0.00,CLR,,0.00,WeatherDisplay:10.37,2013-02-13 13:39:00,
2013-02-13 06:44:00,25.7,3.6,30.03,WSW,247,27.0,27.0,38,0.00,CLR,,0.00,WeatherDisplay:10.37,2013-02-13 13:44:00,
2013-02-13 06:49:00,25.8,3.6,30.04,SW,220,25.3,25.3,38,0.00,CLR,,0.00,WeatherDisplay:10.37,2013-02-13 13:49:00,
2013-02-13 06:54:00,25.7,3.6,30.04,WSW,256,29.9,29.9,38,0.00,CLR,,0.00,WeatherDisplay:10.37,2013-02-13 13:54:00,
2013-02-13 06:59:00,26.1,3.3,30.04,WSW,249,33.4,33.4,37,0.00,,,0.00,WeatherDisplay:10.37,2013-02-13 13:59:00,
2013-02-13 07:04:00,26.3,3.5,30.04,West,268,21.9,21.9,37,0.00,,,0.00,WeatherDisplay:10.37,2013-02-13 14:04:00,
2013-02-13 07:09:00,26.6,3.8,30.04,WNW,290,34.5,34.5,37,0.00,,,0.00,WeatherDisplay:10.37,2013-02-13 14:09:00,
2013-02-13 07:14:00,26.6,3.8,30.04,SW,220,25.3,25.3,37,0.00,CLR,,0.00,WeatherDisplay:10.37,2013-02-13 14:14:00,
2013-02-13 07:19:00,26.1,3.9,30.05,SW,235,37.0,37.0,38,0.00,,,0.00,WeatherDisplay:10.37,2013-02-13 14:19:00,
2013-02-13 07:24:00,26.1,3.9,30.05,WSW,244,31.1,31.1,38,0.00,,,0.00,WeatherDisplay:10.37,2013-02-13 14:24:00,
2013-02-13 07:29:00,26.4,3.6,30.05,WSW,237,32.2,32.2,37,0.00,,,0.00,WeatherDisplay:10.37,2013-02-13 14:29:00,
2013-02-13 07:34:00,26.1,3.9,30.06,WSW,244,32.2,32.2,38,0.00,,,0.00,WeatherDisplay:10.37,2013-02-13 14:34:00,
2013-02-13 07:39:00,25.8,4.2,30.06,SSW,203,29.9,29.9,39,0.00,,,0.00,WeatherDisplay:10.37,2013-02-13 14:39:00,
2013-02-13 07:44:00,26.1,3.9,30.06,WSW,244,25.3,25.3,38,0.00,CLR,,0.00,WeatherDisplay:10.37,2013-02-13 14:44:00,
2013-02-13 07:49:00,26.0,3.8,30.07,SSW,203,31.1,31.1,38,0.00,,,0.00,WeatherDisplay:10.37,2013-02-13 14:49:00,
2013-02-13 07:54:00,26.1,3.9,30.07,SW,230,25.3,25.3,38,0.00,,,0.00,WeatherDisplay:10.37,2013-02-13 14:54:00,
2013-02-13 07:59:00,26.0,3.8,30.07,WSW,249,19.6,19.6,38,0.00,CLR,,0.00,WeatherDisplay:10.37,2013-02-13 14:59:00,
2013-02-13 08:04:00,26.4,3.6,30.07,WSW,252,25.0,25.0,37,0.00,CLR,,0.00,WeatherDisplay:10.37,2013-02-13 15:04:00,
2013-02-13 08:09:00,26.4,3.6,30.07,SW,218,26.5,26.5,37,0.00,CLR,,0.00,WeatherDisplay:10.37,2013-02-13 15:09:00,
2013-02-13 08:14:00,26.3,3.5,30.07,SSW,197,26.5,26.5,37,0.00,,,0.00,WeatherDisplay:10.37,2013-02-13 15:14:00,
2013-02-13 08:19:00,26.7,3.3,30.04,West,271,32.2,32.2,36,0.00,CLR,,0.00,WeatherDisplay:10.37,2013-02-13 15:19:00,
2013-02-13 08:24:00,27.6,2.8,30.04,WSW,255,26.5,26.5,34,0.00,CLR,,0.00,WeatherDisplay:10.37,2013-02-13 15:24:00,
2013-02-13 08:29:00,28.1,3.3,30.04,WSW,241,21.9,21.9,34,0.00,CLR,,0.00,WeatherDisplay:10.37,2013-02-13 15:29:00,
2013-02-13 08:34:00,27.6,3.5,30.04,SW,221,13.8,13.8,35,0.00,CLR,,0.00,WeatherDisplay:10.37,2013-02-13 15:34:00,
2013-02-13 08:39:00,27.3,3.2,30.04,West,273,17.3,17.3,35,0.00,CLR,,0.00,WeatherDisplay:10.37,2013-02-13 15:39:00,
2013-02-13 08:44:00,27.0,3.5,30.04,West,259,20.7,20.7,36,0.00,CLR,,0.00,WeatherDisplay:10.37,2013-02-13 15:44:00,
2013-02-13 08:49:00,27.2,3.7,30.06,West,269,11.5,11.5,36,0.00,CLR,,0.00,WeatherDisplay:10.37,2013-02-13 15:49:00,
2013-02-13 08:54:00,26.7,3.3,30.06,SW,217,17.0,17.0,36,0.00,CLR,,0.00,WeatherDisplay:10.37,2013-02-13 15:54:00,
2013-02-13 08:59:00,26.4,3.0,30.06,SW,225,24.2,24.2,36,0.00,CLR,,0.00,WeatherDisplay:10.37,2013-02-13 15:59:00,
2013-02-13 09:04:00,26.1,3.3,30.05,SW,217,21.0,21.0,37,0.00,CLR,,0.00,WeatherDisplay:10.37,2013-02-13 16:04:00,
2013-02-13 09:09:00,26.6,2.6,30.05,West,269,26.5,26.5,35,0.00,CLR,,0.00,WeatherDisplay:10.37,2013-02-13 16:09:00,
2013-02-13 09:14:00,27.5,2.8,30.05,SW,235,20.7,20.7,34,0.00,CLR,,0.00,WeatherDisplay:10.37,2013-02-13 16:14:00,
2013-02-13 09:19:00,28.1,2.6,30.07,SW,230,25.0,25.0,33,0.00,CLR,,0.00,WeatherDisplay:10.37,2013-02-13 16:19:00,
2013-02-13 09:24:00,28.5,2.3,30.07,WSW,240,21.9,21.9,32,0.00,CLR,,0.00,WeatherDisplay:10.37,2013-02-13 16:24:00,
2013-02-13 09:29:00,29.0,2.8,30.07,SW,235,29.9,29.9,32,0.00,CLR,,0.00,WeatherDisplay:10.37,2013-02-13 16:29:00,
2013-02-13 09:34:00,28.8,3.3,30.04,SW,231,29.9,29.9,33,0.00,CLR,,0.00,WeatherDisplay:10.37,2013-02-13 16:34:00,
2013-02-13 09:39:00,29.0,3.4,30.04,SW,224,32.2,32.2,33,0.00,CLR,,0.00,WeatherDisplay:10.37,2013-02-13 16:39:00,
2013-02-13 09:44:00,28.7,3.8,30.04,SSW,208,33.4,33.4,34,0.00,CLR,,0.00,WeatherDisplay:10.37,2013-02-13 16:44:00,
2013-02-13 09:49:00,29.3,3.7,30.03,WNW,293,25.0,25.0,33,0.00,CLR,,0.00,WeatherDisplay:10.37,2013-02-13 16:49:00,
2013-02-13 09:54:00,29.0,4.1,30.03,SW,225,24.2,24.2,34,0.00,CLR,,0.00,WeatherDisplay:10.37,2013-02-13 16:54:00,
2013-02-13 09:59:00,29.0,4.1,30.03,WSW,242,19.6,19.6,34,0.00,CLR,,0.00,WeatherDisplay:10.37,2013-02-13 16:59:00,
2013-02-13 10:04:00,29.5,5.2,30.04,WSW,245,19.6,19.6,35,0.00,CLR,,0.00,WeatherDisplay:10.37,2013-02-13 17:04:00,
2013-02-13 10:09:00,30.1,5.1,30.04,SW,216,14.0,14.0,34,0.00,CLR,,0.00,WeatherDisplay:10.37,2013-02-13 17:09:00,
2013-02-13 10:14:00,29.5,5.2,30.04,WSW,241,26.5,26.5,35,0.00,CLR,,0.00,WeatherDisplay:10.37,2013-02-13 17:14:00,
2013-02-13 10:19:00,28.1,5.1,30.06,SSW,207,17.3,17.3,37,0.00,CLR,,0.00,WeatherDisplay:10.37,2013-02-13 17:19:00,
2013-02-13 10:24:00,28.4,5.4,30.06,SW,231,19.6,19.6,37,0.00,CLR,,0.00,WeatherDisplay:10.37,2013-02-13 17:24:00,
2013-02-13 10:29:00,29.4,5.7,30.06,SW,230,27.6,27.6,36,0.00,CLR,,0.00,WeatherDisplay:10.37,2013-02-13 17:29:00,
2013-02-13 10:34:00,29.7,4.7,30.04,WSW,249,24.2,24.2,34,0.00,CLR,,0.00,WeatherDisplay:10.37,2013-02-13 17:34:00,
2013-02-13 10:39:00,29.1,4.8,30.04,SW,235,27.0,27.0,35,0.00,CLR,,0.00,WeatherDisplay:10.37,2013-02-13 17:39:00,
2013-02-13 10:44:00,29.5,4.5,30.04,SW,235,27.6,27.6,34,0.00,CLR,,0.00,WeatherDisplay:10.37,2013-02-13 17:44:00,
2013-02-13 10:49:00,29.7,4.7,30.04,SW,224,25.0,25.0,34,0.00,CLR,,0.00,WeatherDisplay:10.37,2013-02-13 17:49:00,
2013-02-13 10:54:00,30.0,5.6,30.04,WSW,248,26.5,26.5,35,0.00,CLR,,0.00,WeatherDisplay:10.37,2013-02-13 17:54:00,
2013-02-13 10:59:00,29.1,5.4,30.04,WNW,289,12.7,12.7,36,0.00,CLR,,0.00,WeatherDisplay:10.37,2013-02-13 17:59:00,
2013-02-13 11:04:00,28.8,5.8,30.10,SSW,204,17.3,17.3,37,0.00,CLR,,0.00,WeatherDisplay:10.37,2013-02-13 18:04:00,
2013-02-13 11:09:00,28.4,6.6,30.10,SW,223,17.3,17.3,39,0.00,CLR,,0.00,WeatherDisplay:10.37,2013-02-13 18:09:00,
2013-02-13 11:14:00,28.1,6.3,30.10,West,259,16.1,16.1,39,0.00,CLR,,0.00,WeatherDisplay:10.37,2013-02-13 18:14:00,
2013-02-13 11:19:00,27.2,6.0,30.11,WSW,242,13.8,13.8,40,0.00,CLR,,0.00,WeatherDisplay:10.37,2013-02-13 18:19:00,
2013-02-13 11:24:00,26.9,6.3,30.11,SW,230,17.3,17.3,41,0.00,CLR,,0.00,WeatherDisplay:10.37,2013-02-13 18:24:00,
2013-02-13 11:29:00,27.0,5.8,30.11,WNW,286,13.8,13.8,40,0.00,CLR,,0.00,WeatherDisplay:10.37,2013-02-13 18:29:00,
2013-02-13 11:34:00,27.3,6.1,30.13,SW,225,16.0,16.0,40,0.00,CLR,,0.00,WeatherDisplay:10.37,2013-02-13 18:34:00,
2013-02-13 11:39:00,27.5,6.3,30.13,West,272,13.8,13.8,40,0.00,CLR,,0.00,WeatherDisplay:10.37,2013-02-13 18:39:00,
2013-02-13 11:44:00,27.9,6.7,30.13,SW,218,19.6,19.6,40,0.00,CLR,,0.00,WeatherDisplay:10.37,2013-02-13 18:44:00,
2013-02-13 11:49:00,28.4,7.1,30.11,West,261,18.4,18.4,40,0.00,CLR,,0.00,WeatherDisplay:10.37,2013-02-13 18:49:00,
2013-02-13 11:54:00,28.8,6.9,30.11,SW,223,19.6,19.6,39,0.00,CLR,,0.00,WeatherDisplay:10.37,2013-02-13 18:54:00,
2013-02-13 11:59:00,29.1,7.2,30.11,SSW,213,19.6,19.6,39,0.00,CLR,,0.00,WeatherDisplay:10.37,2013-02-13 18:59:00,
2013-02-13 12:04:00,29.1,7.7,30.09,SW,214,18.4,18.4,40,0.00,CLR,,0.00,WeatherDisplay:10.37,2013-02-13 19:04:00,
2013-02-13 12:09:00,30.9,8.2,30.09,WSW,241,20.7,20.7,38,0.00,CLR,,0.00,WeatherDisplay:10.37,2013-02-13 19:09:00,
2013-02-13 12:14:00,31.5,8.2,30.09,SW,214,20.7,20.7,37,0.00,CLR,,0.00,WeatherDisplay:10.37,2013-02-13 19:14:00,
2013-02-13 12:19:00,32.5,8.5,30.04,West,262,18.0,18.0,36,0.00,CLR,,0.00,WeatherDisplay:10.37,2013-02-13 19:19:00,
2013-02-13 12:24:00,33.7,8.3,30.04,WSW,241,22.0,22.0,34,0.00,CLR,,0.00,WeatherDisplay:10.37,2013-02-13 19:24:00,
2013-02-13 12:29:00,34.0,8.5,30.04,West,272,8.0,8.0,34,0.00,CLR,,0.00,WeatherDisplay:10.37,2013-02-13 19:29:00,
2013-02-13 12:34:00,33.4,7.3,30.03,West,280,20.7,20.7,33,0.00,CLR,,0.00,WeatherDisplay:10.37,2013-02-13 19:34:00,
2013-02-13 12:39:00,33.4,8.0,30.03,WSW,252,21.9,21.9,34,0.00,CLR,,0.00,WeatherDisplay:10.37,2013-02-13 19:39:00,
2013-02-13 12:44:00,33.4,8.0,30.03,WSW,240,17.3,17.3,34,0.00,CLR,,0.00,WeatherDisplay:10.37,2013-02-13 19:44:00,
2013-02-13 12:49:00,34.3,8.8,30.04,West,264,24.0,24.0,34,0.00,CLR,,0.00,WeatherDisplay:10.37,2013-02-13 19:49:00,
2013-02-13 12:54:00,34.1,8.6,30.04,NW,316,12.7,12.7,34,0.00,CLR,,0.00,WeatherDisplay:10.37,2013-02-13 19:54:00,
2013-02-13 12:59:00,34.3,8.8,30.04,WSW,237,12.7,12.7,34,0.00,CLR,,0.00,WeatherDisplay:10.37,2013-02-13 19:59:00,
2013-02-13 13:04:00,33.7,8.3,30.04,WNW,283,8.1,8.1,34,0.00,CLR,,0.00,WeatherDisplay:10.37,2013-02-13 20:04:00,
2013-02-13 13:09:00,34.0,8.5,30.04,West,259,16.1,16.1,34,0.00,CLR,,0.00,WeatherDisplay:10.37,2013-02-13 20:09:00,
2013-02-13 13:14:00,34.0,8.5,30.04,WSW,254,11.5,11.5,34,0.00,CLR,,0.00,WeatherDisplay:10.37,2013-02-13 20:14:00,
2013-02-13 13:19:00,34.4,8.9,30.02,WSW,258,18.4,18.4,34,0.00,CLR,,0.00,WeatherDisplay:10.37,2013-02-13 20:19:00,
2013-02-13 13:24:00,34.4,8.2,30.02,WNW,286,17.0,17.0,33,0.00,CLR,,0.00,WeatherDisplay:10.37,2013-02-13 20:24:00,
2013-02-13 13:29:00,33.8,8.4,30.02,SW,216,19.6,19.6,34,0.00,CLR,,0.00,WeatherDisplay:10.37,2013-02-13 20:29:00,
2013-02-13 13:34:00,33.7,8.3,30.01,West,280,18.0,18.0,34,0.00,CLR,,0.00,WeatherDisplay:10.37,2013-02-13 20:34:00,
2013-02-13 13:39:00,33.7,8.9,30.01,NW,307,16.1,16.1,35,0.00,CLR,,0.00,WeatherDisplay:10.37,2013-02-13 20:39:00,
2013-02-13 13:44:00,33.7,8.3,30.01,WSW,247,11.5,11.5,34,0.00,CLR,,0.00,WeatherDisplay:10.37,2013-02-13 20:44:00,
2013-02-13 13:49:00,33.1,9.0,30.01,West,262,19.6,19.6,36,0.00,CLR,,0.00,WeatherDisplay:10.37,2013-02-13 20:49:00,
2013-02-13 13:54:00,33.1,10.2,30.01,SW,234,13.8,13.8,38,0.00,CLR,,0.00,WeatherDisplay:10.37,2013-02-13 20:54:00,
2013-02-13 13:59:00,33.1,9.6,30.01,West,268,20.0,20.0,37,0.00,CLR,,0.00,WeatherDisplay:10.37,2013-02-13 20:59:00,
2013-02-13 14:04:00,32.5,10.8,30.02,SW,217,13.0,13.0,40,0.00,CLR,,0.00,WeatherDisplay:10.37,2013-02-13 21:04:00,
2013-02-13 14:09:00,32.7,11.0,30.02,WSW,237,19.6,19.6,40,0.00,CLR,,0.00,WeatherDisplay:10.37,2013-02-13 21:09:00,
2013-02-13 14:14:00,32.4,10.7,30.02,West,275,20.7,20.7,40,0.00,CLR,,0.00,WeatherDisplay:10.37,2013-02-13 21:14:00,
2013-02-13 14:19:00,32.5,10.8,30.01,West,261,18.4,18.4,40,0.00,CLR,,0.00,WeatherDisplay:10.37,2013-02-13 21:19:00,
2013-02-13 14:24:00,32.5,10.8,30.01,SSW,208,19.6,19.6,40,0.00,CLR,,0.00,WeatherDisplay:10.37,2013-02-13 21:24:00,
2013-02-13 14:29:00,32.8,9.9,30.01,WSW,248,20.7,20.7,38,0.00,CLR,,0.00,WeatherDisplay:10.37,2013-02-13 21:29:00,
2013-02-13 14:34:00,32.4,10.7,29.99,SW,232,18.4,18.4,40,0.00,CLR,,0.00,WeatherDisplay:10.37,2013-02-13 21:34:00,
2013-02-13 14:39:00,32.9,10.6,29.99,WSW,242,16.1,16.1,39,0.00,CLR,,0.00,WeatherDisplay:10.37,2013-02-13 21:39:00,
2013-02-13 14:44:00,32.9,10.6,29.99,WSW,240,19.6,19.6,39,0.00,CLR,,0.00,WeatherDisplay:10.37,2013-02-13 21:44:00,
2013-02-13 14:49:00,33.5,10.6,29.99,WSW,238,18.4,18.4,38,0.00,CLR,,0.00,WeatherDisplay:10.37,2013-02-13 21:49:00,
2013-02-13 14:54:00,33.2,10.9,29.99,West,268,18.4,18.4,39,0.00,CLR,,0.00,WeatherDisplay:10.37,2013-02-13 21:54:00,
2013-02-13 14:59:00,33.5,11.2,29.99,West,269,18.4,18.4,39,0.00,CLR,,0.00,WeatherDisplay:10.37,2013-02-13 21:59:00,
2013-02-13 15:04:00,33.1,10.8,29.98,SW,232,19.6,19.6,39,0.00,CLR,,0.00,WeatherDisplay:10.37,2013-02-13 22:04:00,
2013-02-13 15:09:00,33.8,10.8,29.98,WSW,251,20.7,20.7,38,0.00,CLR,,0.00,WeatherDisplay:10.37,2013-02-13 22:09:00,
2013-02-13 15:14:00,33.5,10.0,29.98,SSW,207,21.9,21.9,37,0.00,CLR,,0.00,WeatherDisplay:10.37,2013-02-13 22:14:00,
2013-02-13 15:19:00,33.4,10.5,29.95,SW,216,13.8,13.8,38,0.00,CLR,,0.00,WeatherDisplay:10.37,2013-02-13 22:19:00,
2013-02-13 15:24:00,33.2,10.3,29.95,SW,232,24.2,24.2,38,0.00,CLR,,0.00,WeatherDisplay:10.37,2013-02-13 22:24:00,
2013-02-13 15:29:00,33.4,9.9,29.95,SW,232,19.6,19.6,37,0.00,CLR,,0.00,WeatherDisplay:10.37,2013-02-13 22:29:00,
2013-02-13 15:34:00,33.4,9.3,29.95,SSW,207,24.2,24.2,36,0.00,CLR,,0.00,WeatherDisplay:10.37,2013-02-13 22:34:00,
2013-02-13 15:39:00,33.8,9.0,29.95,SW,232,20.7,20.7,35,0.00,CLR,,0.00,WeatherDisplay:10.37,2013-02-13 22:39:00,
2013-02-13 15:44:00,33.8,9.0,29.95,SW,220,19.6,19.6,35,0.00,CLR,,0.00,WeatherDisplay:10.37,2013-02-13 22:44:00,
2013-02-13 15:49:00,33.7,8.9,29.96,WSW,248,17.3,17.3,35,0.00,CLR,,0.00,WeatherDisplay:10.37,2013-02-13 22:49:00,
2013-02-13 15:54:00,33.5,8.7,29.96,SSW,204,19.6,19.6,35,0.00,CLR,,0.00,WeatherDisplay:10.37,2013-02-13 22:54:00,
2013-02-13 15:59:00,33.2,8.5,29.96,West,259,18.4,18.4,35,0.00,CLR,,0.00,WeatherDisplay:10.37,2013-02-13 22:59:00,
2013-02-13 16:04:00,33.4,8.6,29.96,WSW,238,18.4,18.4,35,0.00,CLR,,0.00,WeatherDisplay:10.37,2013-02-13 23:04:00,
2013-02-13 16:09:00,33.1,8.4,29.96,West,264,20.7,20.7,35,0.00,CLR,,0.00,WeatherDisplay:10.37,2013-02-13 23:09:00,
2013-02-13 16:14:00,32.9,8.2,29.96,WSW,242,31.0,31.0,35,0.00,CLR,,0.00,WeatherDisplay:10.37,2013-02-13 23:14:00,
2013-02-13 16:19:00,32.7,8.0,29.97,WSW,237,26.5,26.5,35,0.00,CLR,,0.00,WeatherDisplay:10.37,2013-02-13 23:19:00,
2013-02-13 16:24:00,32.5,8.5,29.97,WSW,256,17.0,17.0,36,0.00,CLR,,0.00,WeatherDisplay:10.37,2013-02-13 23:24:00,
2013-02-13 16:29:00,32.2,8.2,29.97,SW,221,24.2,24.2,36,0.00,CLR,,0.00,WeatherDisplay:10.37,2013-02-13 23:29:00,
2013-02-13 16:34:00,32.2,8.8,29.95,SW,227,13.8,13.8,37,0.00,CLR,,0.00,WeatherDisplay:10.37,2013-02-13 23:34:00,
2013-02-13 16:39:00,31.9,8.5,29.95,SW,232,25.3,25.3,37,0.00,CLR,,0.00,WeatherDisplay:10.37,2013-02-13 23:39:00,
2013-02-13 16:44:00,31.8,8.4,29.95,WSW,256,25.3,25.3,37,0.00,CLR,,0.00,WeatherDisplay:10.37,2013-02-13 23:44:00,
2013-02-13 16:49:00,31.3,8.6,29.95,West,271,17.3,17.3,38,0.00,CLR,,0.00,WeatherDisplay:10.37,2013-02-13 23:49:00,
2013-02-13 16:54:00,31.2,8.5,29.95,West,269,26.5,26.5,38,0.00,CLR,,0.00,WeatherDisplay:10.37,2013-02-13 23:54:00,
2013-02-13 16:59:00,31.0,8.3,29.95,SW,230,20.0,20.0,38,0.00,CLR,,0.00,WeatherDisplay:10.37,2013-02-13 23:59:00,
2013-02-13 17:04:00,30.6,8.0,29.97,WSW,249,26.5,26.5,38,0.00,CLR,,0.00,WeatherDisplay:10.37,2013-02-14 00:04:00,
2013-02-13 17:09:00,30.1,8.7,29.97,West,265,26.5,26.5,40,0.00,CLR,,0.00,WeatherDisplay:10.37,2013-02-14 00:09:00,
2013-02-13 17:14:00,29.8,8.4,29.97,SW,224,20.7,20.7,40,0.00,CLR,,0.00,WeatherDisplay:10.37,2013-02-14 00:14:00,
2013-02-13 17:19:00,29.8,8.4,29.97,West,280,32.2,32.2,40,0.00,CLR,,0.00,WeatherDisplay:10.37,2013-02-14 00:19:00,
2013-02-13 17:24:00,29.7,8.8,29.97,WSW,247,26.5,26.5,41,0.00,CLR,,0.00,WeatherDisplay:10.37,2013-02-14 00:24:00,
2013-02-13 17:29:00,29.7,8.3,29.97,WSW,241,27.6,27.6,40,0.00,CLR,,0.00,WeatherDisplay:10.37,2013-02-14 00:29:00,
2013-02-13 17:34:00,29.7,7.7,29.97,WNW,285,26.5,26.5,39,0.00,CLR,,0.00,WeatherDisplay:10.37,2013-02-14 00:34:00,
2013-02-13 17:39:00,29.7,7.7,29.97,SW,228,27.6,27.6,39,0.00,CLR,,0.00,WeatherDisplay:10.37,2013-02-14 00:39:00,
2013-02-13 17:44:00,29.7,7.7,29.97,West,278,22.0,22.0,39,0.00,CLR,,0.00,WeatherDisplay:10.37,2013-02-14 00:44:00,
2013-02-13 17:49:00,29.5,7.5,29.98,WSW,254,18.4,18.4,39,0.00,CLR,,0.00,WeatherDisplay:10.37,2013-02-14 00:49:00,
2013-02-13 17:54:00,29.5,7.5,29.98,West,265,20.7,20.7,39,0.00,CLR,,0.00,WeatherDisplay:10.37,2013-02-14 00:54:00,
2013-02-13 17:59:00,29.5,8.1,29.98,SW,232,24.2,24.2,40,0.00,,,0.00,WeatherDisplay:10.37,2013-02-14 00:59:00,
2013-02-13 18:04:00,29.5,7.5,29.98,SW,224,36.8,36.8,39,0.00,,,0.00,WeatherDisplay:10.37,2013-02-14 01:04:00,
2013-02-13 18:09:00,29.5,8.1,29.98,WSW,258,26.5,26.5,40,0.00,CLR,,0.00,WeatherDisplay:10.37,2013-02-14 01:09:00,
2013-02-13 18:14:00,29.3,8.5,29.98,West,278,26.5,26.5,41,0.00,CLR,,0.00,WeatherDisplay:10.37,2013-02-14 01:14:00,
2013-02-13 18:19:00,29.3,7.9,30.00,West,268,29.0,29.0,40,0.00,CLR,,0.00,WeatherDisplay:10.37,2013-02-14 01:19:00,
2013-02-13 18:24:00,29.4,7.5,30.00,WSW,251,21.9,21.9,39,0.00,CLR,,0.00,WeatherDisplay:10.37,2013-02-14 01:24:00,
2013-02-13 18:29:00,29.4,7.5,30.00,WSW,249,26.5,26.5,39,0.00,CLR,,0.00,WeatherDisplay:10.37,2013-02-14 01:29:00,
2013-02-13 18:34:00,29.4,7.5,30.00,West,279,26.5,26.5,39,0.00,CLR,,0.00,WeatherDisplay:10.37,2013-02-14 01:34:00,
2013-02-13 18:39:00,29.4,6.9,30.00,WSW,254,28.0,28.0,38,0.00,CLR,,0.00,WeatherDisplay:10.37,2013-02-14 01:39:00,
2013-02-13 18:44:00,29.7,6.6,30.00,SW,231,35.7,35.7,37,0.00,,,0.00,WeatherDisplay:10.37,2013-02-14 01:44:00,
2013-02-13 18:49:00,29.8,6.1,30.00,WNW,295,34.5,34.5,36,0.00,CLR,,0.00,WeatherDisplay:10.37,2013-02-14 01:49:00,
2013-02-13 18:54:00,30.0,5.6,30.00,WNW,289,26.5,26.5,35,0.00,CLR,,0.00,WeatherDisplay:10.37,2013-02-14 01:54:00,
2013-02-13 18:59:00,29.8,5.4,30.00,WSW,245,25.3,25.3,35,0.00,CLR,,0.00,WeatherDisplay:10.37,2013-02-14 01:59:00,
2013-02-13 19:04:00,29.8,6.1,30.00,WNW,289,13.8,13.8,36,0.00,CLR,,0.00,WeatherDisplay:10.37,2013-02-14 02:04:00,
2013-02-13 19:09:00,29.7,6.0,30.00,West,259,26.5,26.5,36,0.00,CLR,,0.00,WeatherDisplay:10.37,2013-02-14 02:09:00,
2013-02-13 19:14:00,29.5,5.8,30.00,WNW,286,25.3,25.3,36,0.00,CLR,,0.00,WeatherDisplay:10.37,2013-02-14 02:14:00,
2013-02-13 19:19:00,29.5,6.4,30.01,West,279,21.9,21.9,37,0.00,CLR,,0.00,WeatherDisplay:10.37,2013-02-14 02:19:00,
2013-02-13 19:24:00,29.3,6.8,30.01,SE,144,11.5,11.5,38,0.00,CLR,,0.00,WeatherDisplay:10.37,2013-02-14 02:24:00,
2013-02-13 19:29:00,29.3,6.8,30.01,WSW,241,21.9,21.9,38,0.00,CLR,,0.00,WeatherDisplay:10.37,2013-02-14 02:29:00,
2013-02-13 19:34:00,29.1,6.0,30.04,SW,220,20.7,20.7,37,0.00,CLR,,0.00,WeatherDisplay:10.37,2013-02-14 02:34:00,
2013-02-13 19:39:00,29.0,7.1,30.04,SW,221,11.5,11.5,39,0.00,CLR,,0.00,WeatherDisplay:10.37,2013-02-14 02:39:00,
2013-02-13 19:44:00,28.8,7.5,30.04,SW,221,12.7,12.7,40,0.00,CLR,,0.00,WeatherDisplay:10.37,2013-02-14 02:44:00,
2013-02-13 19:49:00,28.7,7.4,30.05,West,273,21.9,21.9,40,0.00,CLR,,0.00,WeatherDisplay:10.37,2013-02-14 02:49:00,
2013-02-13 19:54:00,28.5,7.2,30.05,SSW,213,13.8,13.8,40,0.00,CLR,,0.00,WeatherDisplay:10.37,2013-02-14 02:54:00,
2013-02-13 19:59:00,28.4,7.7,30.05,West,272,12.7,12.7,41,0.00,CLR,,0.00,WeatherDisplay:10.37,2013-02-14 02:59:00,
2013-02-13 20:04:00,28.4,7.7,30.04,WSW,238,20.7,20.7,41,0.00,CLR,,0.00,WeatherDisplay:10.37,2013-02-14 03:04:00,
2013-02-13 20:09:00,28.4,7.7,30.04,SW,220,12.7,12.7,41,0.00,CLR,,0.00,WeatherDisplay:10.37,2013-02-14 03:09:00,
2013-02-13 20:14:00,28.4,7.7,30.04,WSW,242,12.7,12.7,41,0.00,CLR,,0.00,WeatherDisplay:10.37,2013-02-14 03:14:00,
2013-02-13 20:19:00,28.2,7.5,30.05,SW,232,19.6,19.6,41,0.00,CLR,,0.00,WeatherDisplay:10.37,2013-02-14 03:19:00,
2013-02-13 20:24:00,28.4,7.7,30.05,South,184,16.0,16.0,41,0.00,CLR,,0.00,WeatherDisplay:10.37,2013-02-14 03:24:00,
2013-02-13 20:29:00,28.4,7.7,30.05,West,261,10.4,10.4,41,0.00,CLR,,0.00,WeatherDisplay:10.37,2013-02-14 03:29:00,
2013-02-13 20:34:00,28.4,7.1,30.05,SW,232,12.7,12.7,40,0.00,CLR,,0.00,WeatherDisplay:10.37,2013-02-14 03:34:00,
2013-02-13 20:39:00,28.5,7.2,30.05,SSW,206,12.7,12.7,40,0.00,CLR,,0.00,WeatherDisplay:10.37,2013-02-14 03:39:00,
2013-02-13 20:44:00,28.5,7.2,30.05,SW,230,20.7,20.7,40,0.00,CLR,,0.00,WeatherDisplay:10.37,2013-02-14 03:44:00,
2013-02-13 20:49:00,28.7,7.4,30.05,SSW,200,19.6,19.6,40,0.00,CLR,,0.00,WeatherDisplay:10.37,2013-02-14 03:49:00,
2013-02-13 20:55:00,29.0,7.7,30.05,SW,224,24.2,24.2,40,0.00,CLR,,0.00,WeatherDisplay:10.37,2013-02-14 03:55:00,
2013-02-13 21:00:00,29.0,7.7,30.05,SSW,197,24.2,24.2,40,0.00,CLR,,0.00,WeatherDisplay:10.37,2013-02-14 04:00:00,
2013-02-13 21:05:00,29.0,7.7,30.05,SW,225,18.4,18.4,40,0.00,CLR,,0.00,WeatherDisplay:10.37,2013-02-14 04:05:00,
2013-02-13 21:10:00,29.0,7.7,30.05,SSW,211,18.4,18.4,40,0.00,CLR,,0.00,WeatherDisplay:10.37,2013-02-14 04:10:00,
2013-02-13 21:15:00,29.0,7.7,30.02,WSW,242,11.5,11.5,40,0.00,CLR,,0.00,WeatherDisplay:10.37,2013-02-14 04:15:00,
2013-02-13 21:20:00,29.1,7.7,30.02,SW,220,16.1,16.1,40,0.00,CLR,,0.00,WeatherDisplay:10.37,2013-02-14 04:20:00,
2013-02-13 21:25:00,29.1,6.6,30.02,West,259,18.0,18.0,38,0.00,CLR,,0.00,WeatherDisplay:10.37,2013-02-14 04:25:00,
2013-02-13 21:30:00,29.4,6.9,30.02,SW,235,19.6,19.6,38,0.00,CLR,,0.00,WeatherDisplay:10.37,2013-02-14 04:30:00,
2013-02-13 21:35:00,29.4,6.9,30.02,SSE,156,13.0,13.0,38,0.00,CLR,,0.00,WeatherDisplay:10.37,2013-02-14 04:35:00,
2013-02-13 21:40:00,29.4,6.3,30.02,SW,216,13.0,13.0,37,0.00,CLR,,0.00,WeatherDisplay:10.37,2013-02-14 04:40:00,
2013-02-13 21:45:00,29.8,5.4,30.03,WSW,254,19.0,19.0,35,0.00,CLR,,0.00,WeatherDisplay:10.37,2013-02-14 04:45:00,
2013-02-13 21:50:00,29.7,6.0,30.03,SSW,204,19.6,19.6,36,0.00,CLR,,0.00,WeatherDisplay:10.37,2013-02-14 04:50:00,
2013-02-13 21:55:00,29.7,6.6,30.03,West,261,17.3,17.3,37,0.00,CLR,,0.00,WeatherDisplay:10.37,2013-02-14 04:55:00,
2013-02-13 22:00:00,29.4,6.9,30.03,WSW,252,18.4,18.4,38,0.00,CLR,,0.00,WeatherDisplay:10.37,2013-02-14 05:00:00,
2013-02-13 22:05:00,29.4,7.5,30.04,SSW,201,24.2,24.2,39,0.00,CLR,,0.00,WeatherDisplay:10.37,2013-02-14 05:05:00,
2013-02-13 22:10:00,29.1,7.7,30.04,SSW,207,21.9,21.9,40,0.00,CLR,,0.00,WeatherDisplay:10.37,2013-02-14 05:10:00,
2013-02-13 22:15:00,29.1,7.7,30.04,SW,223,19.6,19.6,40,0.00,CLR,,0.00,WeatherDisplay:10.37,2013-02-14 05:15:00,
2013-02-13 22:20:00,29.0,7.7,30.04,West,271,18.0,18.0,40,0.00,CLR,,0.00,WeatherDisplay:10.37,2013-02-14 05:20:00,
2013-02-13 22:26:00,28.8,8.0,30.04,SW,218,11.5,11.5,41,0.00,CLR,,0.00,WeatherDisplay:10.37,2013-02-14 05:26:00,
2013-02-13 22:31:00,28.8,8.6,30.03,SSW,204,19.6,19.6,42,0.00,CLR,,0.00,WeatherDisplay:10.37,2013-02-14 05:31:00,
2013-02-13 22:36:00,28.7,8.5,30.03,WSW,248,24.2,24.2,42,0.00,CLR,,0.00,WeatherDisplay:10.37,2013-02-14 05:36:00,
2013-02-13 22:41:00,28.8,8.0,30.03,WSW,245,24.2,24.2,41,0.00,CLR,,0.00,WeatherDisplay:10.37,2013-02-14 05:41:00,
2013-02-13 22:46:00,28.8,8.6,30.03,WSW,247,25.3,25.3,42,0.00,CLR,,0.00,WeatherDisplay:10.37,2013-02-14 05:46:00,
2013-02-13 22:51:00,28.7,8.5,30.03,SW,230,19.6,19.6,42,0.00,CLR,,0.00,WeatherDisplay:10.37,2013-02-14 05:51:00,
2013-02-13 22:56:00,28.7,8.5,30.03,WSW,241,20.0,20.0,42,0.00,CLR,,0.00,WeatherDisplay:10.37,2013-02-14 05:56:00,
2013-02-13 23:01:00,28.8,8.0,30.02,WSW,240,26.5,26.5,41,0.00,CLR,,0.00,WeatherDisplay:10.37,2013-02-14 06:01:00,
2013-02-13 23:06:00,28.7,7.9,30.02,WSW,248,24.2,24.2,41,0.00,CLR,,0.00,WeatherDisplay:10.37,2013-02-14 06:06:00,
2013-02-13 23:11:00,28.7,7.9,30.02,SSW,203,20.7,20.7,41,0.00,CLR,,0.00,WeatherDisplay:10.37,2013-02-14 06:11:00,
2013-02-13 23:16:00,28.7,8.5,30.03,WSW,256,18.4,18.4,42,0.00,CLR,,0.00,WeatherDisplay:10.37,2013-02-14 06:16:00,
2013-02-13 23:21:00,28.5,8.3,30.03,South,189,21.0,21.0,42,0.00,CLR,,0.00,WeatherDisplay:10.37,2013-02-14 06:21:00,
2013-02-13 23:26:00,28.7,7.9,30.03,West,269,25.3,25.3,41,0.00,CLR,,0.00,WeatherDisplay:10.37,2013-02-14 06:26:00,
2013-02-13 23:31:00,29.0,8.2,30.03,West,279,28.8,28.8,41,0.00,,,0.00,WeatherDisplay:10.37,2013-02-14 06:31:00,
2013-02-13 23:36:00,29.0,7.7,30.03,SW,231,26.5,26.5,40,0.00,CLR,,0.00,WeatherDisplay:10.37,2013-02-14 06:36:00,
2013-02-13 23:41:00,29.1,7.7,30.03,WSW,241,25.3,25.3,40,0.00,CLR,,0.00,WeatherDisplay:10.37,2013-02-14 06:41:00,
2013-02-13 23:46:00,29.1,7.7,30.03,West,259,26.5,26.5,40,0.00,CLR,,0.00,WeatherDisplay:10.37,2013-02-14 06:46:00,
2013-02-13 23:51:00,29.1,7.7,30.03,WSW,252,24.2,24.2,40,0.00,CLR,,0.00,WeatherDisplay:10.37,2013-02-14 06:51:00,
2013-02-13 23:56:00,29.0,8.2,30.03,SW,235,25.3,25.3,41,0.00,CLR,,0.00,WeatherDisplay:10.37,2013-02-14 06:56:00,